Location: Caltech
(34.1382°N, 118.1253°W)
Time: 08:50:57
(UTC-07:00)

Iridium 72 - Visible Passes

Search period start: 30 September 2014 00:00
Search period end: 10 October 2014 00:00
Orbit: 776 x 779 km, 86.4° (Epoch: 30 September)

Date Brightness Start Highest point End Pass type
(mag) Time Alt. Az. Time Alt. Az. Time Alt. Az.
30 Sep 8.9 05:11:35 10° NE 05:13:42 12° ENE 05:15:48 10° E visible
30 Sep 8.0 19:43:22 10° SW 19:47:38 25° W 19:51:55 10° NNW visible
01 Oct 6.0 06:16:06 10° N 06:21:18 70° E 06:26:28 10° S visible
01 Oct 6.7 19:08:57 10° SSW 19:13:58 49° W 19:19:01 10° N visible
02 Oct 7.3 05:42:56 10° NNE 05:47:42 36° E 05:52:26 10° SSE visible
03 Oct 8.4 05:10:22 10° NE 05:13:58 19° E 05:17:34 10° ESE visible
03 Oct 8.6 19:44:31 10° WSW 19:47:52 17° WNW 19:51:15 10° NW visible
04 Oct 5.5 06:16:10 10° N 06:21:23 78° W 06:26:34 10° S visible
04 Oct 7.6 19:09:29 10° SSW 19:14:07 33° W 19:18:48 10° NNW visible
05 Oct 6.4 05:42:45 10° N 05:47:51 53° E 05:52:55 10° SSE visible
06 Oct 7.7 05:09:46 10° NNE 05:14:12 28° E 05:18:35 10° SE visible
06 Oct 9.0 19:46:37 10° W 19:48:09 11° WNW 19:49:41 10° WNW visible
07 Oct 8.6 04:37:39 10° NE 04:40:25 14° ENE 04:43:10 10° ESE visible
07 Oct 5.7 06:16:22 10° NNW 06:21:25 52° W 06:26:26 10° SSW visible
07 Oct 8.3 19:10:20 10° SW 19:14:19 22° W 19:18:21 10° NNW visible
08 Oct 5.6 05:42:43 10° N 05:47:57 81° E 05:53:09 10° S visible
09 Oct 6.8 05:09:28 10° NNE 05:14:22 41° E 05:19:15 10° SSE visible
